TimeMST,TemperatureF,Dew PointF,Humidity,Sea Level PressureIn,VisibilityMPH,Wind Direction,Wind SpeedMPH,Gust SpeedMPH,PrecipitationIn,Events,Conditions,WindDirDegrees,DateUTC
12:15 AM,66.2,28.4,24,30.22,10.0,SSW,9.2,-,N/A,,Clear,200,2013-06-15 07:15:00
12:35 AM,66.2,28.4,24,30.22,10.0,South,9.2,-,N/A,,Clear,190,2013-06-15 07:35:00
12:55 AM,66.2,28.4,24,30.22,10.0,South,9.2,-,N/A,,Partly Cloudy,190,2013-06-15 07:55:00
1:15 AM,66.2,30.2,26,30.21,10.0,South,9.2,-,N/A,,Scattered Clouds,190,2013-06-15 08:15:00
1:35 AM,66.2,30.2,26,30.21,10.0,South,9.2,-,N/A,,Partly Cloudy,190,2013-06-15 08:35:00
1:55 AM,66.2,30.2,26,30.21,10.0,South,10.4,-,N/A,,Partly Cloudy,190,2013-06-15 08:55:00
2:15 AM,66.2,30.2,26,30.21,10.0,South,8.1,-,N/A,,Partly Cloudy,180,2013-06-15 09:15:00
2:35 AM,64.4,32.0,30,30.22,10.0,South,8.1,-,N/A,,Clear,180,2013-06-15 09:35:00
2:55 AM,62.6,32.0,32,30.22,10.0,South,6.9,-,N/A,,Partly Cloudy,180,2013-06-15 09:55:00
3:15 AM,59.0,32.0,36,30.22,10.0,SSE,8.1,-,N/A,,Clear,160,2013-06-15 10:15:00
3:35 AM,59.0,32.0,36,30.22,10.0,SSE,6.9,-,N/A,,Partly Cloudy,160,2013-06-15 10:35:00
3:55 AM,59.0,32.0,36,30.22,10.0,SSE,8.1,-,N/A,,Clear,150,2013-06-15 10:55:00
4:15 AM,59.0,32.0,36,30.22,10.0,SSE,6.9,-,N/A,,Scattered Clouds,160,2013-06-15 11:15:00
4:35 AM,59.0,32.0,36,30.22,10.0,SSE,6.9,-,N/A,,Partly Cloudy,160,2013-06-15 11:35:00
4:55 AM,57.2,32.0,38,30.23,10.0,SE,6.9,-,N/A,,Clear,140,2013-06-15 11:55:00
5:15 AM,57.2,32.0,38,30.24,10.0,SE,6.9,-,N/A,,Partly Cloudy,140,2013-06-15 12:15:00
5:35 AM,57.2,32.0,38,30.24,10.0,SE,6.9,-,N/A,,Partly Cloudy,140,2013-06-15 12:35:00
5:55 AM,57.2,32.0,38,30.24,10.0,SSE,8.1,-,N/A,,Scattered Clouds,160,2013-06-15 12:55:00
6:15 AM,57.2,32.0,38,30.25,10.0,SSE,6.9,-,N/A,,Partly Cloudy,150,2013-06-15 13:15:00
6:35 AM,62.6,33.8,34,30.25,10.0,SE,6.9,-,N/A,,Clear,140,2013-06-15 13:35:00
6:55 AM,66.2,33.8,30,30.26,10.0,SSE,8.1,-,N/A,,Clear,150,2013-06-15 13:55:00
7:15 AM,68.0,33.8,28,30.26,10.0,SE,3.5,-,N/A,,Clear,140,2013-06-15 14:15:00
7:35 AM,69.8,33.8,27,30.26,10.0,SSE,10.4,-,N/A,,Clear,150,2013-06-15 14:35:00
7:55 AM,71.6,35.6,27,30.26,10.0,SSE,15.0,-,N/A,,Clear,150,2013-06-15 14:55:00
8:15 AM,73.4,35.6,25,30.26,10.0,SSE,11.5,-,N/A,,Clear,160,2013-06-15 15:15:00
8:35 AM,73.4,33.8,23,30.27,10.0,South,13.8,-,N/A,,Partly Cloudy,180,2013-06-15 15:35:00
8:55 AM,75.2,33.8,22,30.27,10.0,South,17.3,25.3,N/A,,Partly Cloudy,190,2013-06-15 15:55:00
9:15 AM,75.2,35.6,24,30.27,10.0,South,13.8,26.5,N/A,,Clear,180,2013-06-15 16:15:00
9:35 AM,75.2,35.6,24,30.27,10.0,South,13.8,21.9,N/A,,Clear,180,2013-06-15 16:35:00
9:55 AM,75.2,35.6,24,30.27,10.0,SSW,15.0,25.3,N/A,,Clear,200,2013-06-15 16:55:00
10:15 AM,77.0,37.4,24,30.27,10.0,SSW,18.4,26.5,N/A,,Clear,200,2013-06-15 17:15:00
10:35 AM,77.0,37.4,24,30.27,10.0,South,13.8,26.5,N/A,,Clear,190,2013-06-15 17:35:00
10:55 AM,78.8,37.4,23,30.27,10.0,South,17.3,28.8,N/A,,Clear,180,2013-06-15 17:55:00
11:15 AM,77.0,37.4,24,30.27,10.0,SSW,13.8,24.2,N/A,,Scattered Clouds,200,2013-06-15 18:15:00
11:35 AM,78.8,35.6,21,30.27,10.0,South,17.3,24.2,N/A,,Clear,190,2013-06-15 18:35:00
11:55 AM,80.6,35.6,20,30.28,10.0,SSW,21.9,27.6,N/A,,Clear,200,2013-06-15 18:55:00
12:15 PM,80.6,35.6,20,30.27,10.0,South,20.7,33.4,N/A,,Clear,170,2013-06-15 19:15:00
12:35 PM,77.0,33.8,21,30.27,10.0,South,15.0,25.3,N/A,,Scattered Clouds,190,2013-06-15 19:35:00
12:55 PM,80.6,32.0,17,30.26,10.0,South,19.6,31.1,N/A,,Partly Cloudy,170,2013-06-15 19:55:00
1:15 PM,80.6,32.0,17,30.26,10.0,SW,20.7,33.4,N/A,,Clear,220,2013-06-15 20:15:00
1:35 PM,82.4,32.0,16,30.26,10.0,South,12.7,29.9,N/A,,Clear,180,2013-06-15 20:35:00
1:55 PM,80.6,32.0,17,30.25,10.0,South,15.0,26.5,N/A,,Clear,180,2013-06-15 20:55:00
2:15 PM,80.6,32.0,17,30.25,10.0,South,17.3,26.5,N/A,,Clear,190,2013-06-15 21:15:00
2:35 PM,82.4,30.2,15,30.25,10.0,SSW,18.4,29.9,N/A,,Clear,210,2013-06-15 21:35:00
2:55 PM,80.6,32.0,17,30.25,10.0,South,19.6,29.9,N/A,,Partly Cloudy,170,2013-06-15 21:55:00
3:15 PM,80.6,30.2,16,30.24,10.0,South,16.1,28.8,N/A,,Partly Cloudy,180,2013-06-15 22:15:00
3:35 PM,82.4,30.2,15,30.24,10.0,South,20.7,26.5,N/A,,Clear,190,2013-06-15 22:35:00
3:55 PM,80.6,28.4,15,30.24,10.0,South,17.3,26.5,N/A,,Clear,190,2013-06-15 22:55:00
4:15 PM,80.6,28.4,15,30.24,10.0,SW,17.3,20.7,N/A,,Partly Cloudy,220,2013-06-15 23:15:00
4:35 PM,80.6,28.4,15,30.23,10.0,South,17.3,28.8,N/A,,Clear,190,2013-06-15 23:35:00
4:55 PM,78.8,26.6,15,30.23,10.0,South,17.3,26.5,N/A,,Clear,180,2013-06-15 23:55:00
5:15 PM,78.8,26.6,15,30.23,10.0,SSW,16.1,24.2,N/A,,Partly Cloudy,210,2013-06-16 00:15:00
5:35 PM,78.8,26.6,15,30.22,10.0,SW,16.1,20.7,N/A,,Clear,220,2013-06-16 00:35:00
5:55 PM,-9999,-9999,N/A,30.22,10.0,South,16.1,24.2,N/A,,Clear,190,2013-06-16 00:55:00
6:15 PM,77.0,26.6,16,30.23,10.0,SSW,15.0,20.7,N/A,,Clear,200,2013-06-16 01:15:00
6:35 PM,77.0,26.6,16,30.23,10.0,SW,12.7,-,N/A,,Clear,220,2013-06-16 01:35:00
6:55 PM,75.2,24.8,15,30.23,10.0,SW,12.7,23.0,N/A,,Clear,220,2013-06-16 01:55:00
7:15 PM,75.2,24.8,15,30.24,10.0,SSW,10.4,17.3,N/A,,Clear,200,2013-06-16 02:15:00
7:35 PM,73.4,24.8,16,30.25,10.0,SSW,9.2,-,N/A,,Clear,210,2013-06-16 02:35:00
7:55 PM,71.6,24.8,17,30.25,10.0,SSW,9.2,-,N/A,,Clear,200,2013-06-16 02:55:00
8:15 PM,69.8,24.8,18,30.26,10.0,South,8.1,-,N/A,,Clear,190,2013-06-16 03:15:00
8:35 PM,68.0,24.8,20,30.26,10.0,South,6.9,-,N/A,,Clear,190,2013-06-16 03:35:00
8:55 PM,66.2,24.8,21,30.27,10.0,South,6.9,-,N/A,,Partly Cloudy,190,2013-06-16 03:55:00
9:15 PM,66.2,24.8,21,30.28,10.0,South,6.9,-,N/A,,Partly Cloudy,190,2013-06-16 04:15:00
9:35 PM,64.4,24.8,22,30.29,10.0,South,5.8,-,N/A,,Partly Cloudy,190,2013-06-16 04:35:00
9:55 PM,64.4,24.8,22,30.29,10.0,South,5.8,-,N/A,,Scattered Clouds,190,2013-06-16 04:55:00
10:15 PM,64.4,24.8,22,30.30,10.0,South,6.9,-,N/A,,Mostly Cloudy,190,2013-06-16 05:15:00
10:35 PM,64.4,24.8,22,30.30,10.0,South,6.9,-,N/A,,Mostly Cloudy,190,2013-06-16 05:35:00
10:55 PM,64.4,24.8,22,30.29,10.0,SSW,6.9,-,N/A,,Mostly Cloudy,200,2013-06-16 05:55:00
11:15 PM,64.4,24.8,22,30.29,10.0,SSW,6.9,-,N/A,,Mostly Cloudy,200,2013-06-16 06:15:00
11:35 PM,62.6,24.8,24,30.29,10.0,South,8.1,-,N/A,,Partly Cloudy,190,2013-06-16 06:35:00
11:55 PM,62.6,24.8,24,30.29,10.0,South,5.8,-,N/A,,Clear,180,2013-06-16 06:55:00